Regional Weather Roundup
Issued by NWS

Home | Current Version | Previous Version | Text Only | Print | Product List | Glossary Off
Versions: 1 2 3 4 5 6 7 8 9 10 11 12 13 14 15 16 17 18 19 20 21 22 23 24 25 26 27 28 29 30 31 32 33 34 35 36 37 38 39 40 41 42 43 44 45 46 47 48 49 50

157
ASUS43 KOAX 200802
RWRNE

WEATHER ROUNDUP FOR NEBRASKA
NATIONAL WEATHER SERVICE OMAHA NE
200 AM CST FRI JAN 20 2017

NOTES: SATELLITE DATA IS BEING USED TO AUGMENT CLOUD COVER ABOVE
       12000 FEET.
       "FAIR" INDICATES FEW OR NO CLOUDS BELOW 12,000 FEET WITH NO
       SIGNIFICANT WEATHER AND/OR OBSTRUCTIONS TO VISIBILITY.

  * THESE STATIONS DO NOT REPORT WEATHER SUCH AS RAIN...SNOW OR FOG.

NEZ001>004-019>022-054>056-200900-
NEBRASKA PANHANDLE

CITY           SKY/WX    TMP DP  RH WIND       PRES   REMARKS
SCOTTSBLUFF    CLOUDY    26  21  81 NE3       29.48F
ALLIANCE       CLOUDY    19  16  88 W7        29.46F WCI  10
CHADRON        CLOUDY    21  17  84 W9        29.45F WCI  11
KIMBALL        CLOUDY    29  26  86 NW5       29.48S WCI  24
SIDNEY         CLOUDY    28  22  78 NW5       29.48S WCI  23
$$

NEZ057>060-069>072-079>082-200900-
SOUTHWEST NEBRASKA

CITY           SKY/WX    TMP DP  RH WIND       PRES   REMARKS
NORTH PLATTE   CLOUDY    37  35  92 W7        29.51F WCI  32
IMPERIAL       FOG       31  30  96 SW6       29.49F VSB 1/4 WCI  25
LEXINGTON      CLOUDY    37  35  95 E3        29.51F FOG
MCCOOK         FOG       33  33 100 S5        29.51S VSB 1/2 WCI  29
OGALLALA       FOG       31  30  98 CALM      29.48F VSB 3/4
$$

NEZ005>010-023>029-035>040-094-200900-
NORTH CENTRAL NEBRASKA

CITY           SKY/WX    TMP DP  RH WIND       PRES   REMARKS
VALENTINE      CLOUDY    24  21  88 SW9       29.43F WCI  14
AINSWORTH      CLOUDY    33  32  99 S12       29.44F FOG     WCI  24
BROKEN BOW     CLOUDY    38  36  92 S7        29.50F WCI  33
O`NEILL        CLOUDY    41  39  90 S12       29.49F
ORD            CLOUDY    39  36  89 S7        29.52F WCI  34
THEDFORD       CLOUDY    32  32  99 SW12      29.47F WCI  23
$$

NEZ041-046>049-061>064-073>077-083>087-200900-
SOUTH CENTRAL NEBRASKA

CITY           SKY/WX    TMP DP  RH WIND       PRES   REMARKS
GRAND ISLAND   FOG       37  37 100 S3        29.56F VSB 1
AURORA         FOG       37  37 100 CALM      29.56F VSB 1/4
HASTINGS       FOG       38  37  97 CALM      29.56F VSB 1/2
HEBRON         FOG       38  38  99 CALM      29.57F VSB 1/4
HOLDREGE       FOG       35  34  97 N3        29.52F VSB 1/4
KEARNEY *      CLOUDY    37  34  87 CALM      29.54F VSB 1/2
YORK           FOG       37  37 100 CALM      29.57F VSB 1/2
$$

NEZ011>018-030>034-042>045-200900-
NORTHEAST NEBRASKA

CITY           SKY/WX    TMP DP  RH WIND       PRES   REMARKS
NORFOLK        FOG       37  36  96 S8        29.55F VSB 3/4 WCI  31
ALBION         CLOUDY   N/A N/A N/A CALM      29.54F HAZE
BLAIR          CLOUDY    40  39  98 CALM      29.58S FOG
FREMONT        CLOUDY    39  39 100 CALM      29.59F FOG
TEKAMAH        FOG       36  35  96 SW3       29.59F VSB 1/4
WAYNE          FOG       37  37  99 S5        29.57S VSB 3/4 WCI  33
$$

NEZ050>053-065>068-078-088>093-200900-
SOUTHEAST NEBRASKA

CITY           SKY/WX    TMP DP  RH WIND       PRES   REMARKS
LINCOLN        FOG       39  38  96 CALM      29.60S VSB 1/2
OMAHA EPPLEY   FOG       37  34  89 N3        29.60S VSB 1/4
BEATRICE       CLOUDY    40  40 100 E5        29.58S FOG
FALLS CITY     FOG       41  41 100 E3        29.59S VSB 1/2
NEBRASKA CITY  FOG       38  38 100 CALM      29.59S VSB 1/4
PLATTSMOUTH    FOG       39  37  93 CALM      29.59S VSB 1/2
$$

NEZ044-045-051>053-067-200900-
OMAHA AREA

CITY           SKY/WX    TMP DP  RH WIND       PRES   REMARKS
OMAHA EPPLEY   FOG       37  34  89 N3        29.60S VSB 1/4
BLAIR          CLOUDY    40  39  98 CALM      29.58S FOG
FREMONT        CLOUDY    39  39 100 CALM      29.59F FOG
MILLARD        FOG       41  40  97 CALM      29.60S VSB 3/4
PLATTSMOUTH    FOG       39  37  93 CALM      29.59S VSB 1/2
WAHOO          FOG       37  36  97 CALM      29.59S VSB 1/4
$$




USA.gov is the U.S. government's official web portal to all federal, state and local government web resources and services.